Regional Weather Roundup
Issued by NWS Charleston, WV

Home | Current Version | Previous Version | Graphics & Text | Print | Product List | Glossary On
Versions: 1 2 3 4 5 6 7 8 9 10 11 12 13 14 15 16 17 18 19 20 21 22 23 24 25 26 27 28 29 30 31 32 33 34 35 36 37 38 39 40 41 42 43 44 45 46 47 48 49 50
735
ASUS41 KRLX 241310
RWRRLX
West Virginia Regional Weather Roundup
National Weather Service Charleston WV
800 AM EST SAT FEB 24 2018

Note: "fair" indicates few or no clouds below 12,000 feet with no
significant weather and/or obstructions to visibility.

WVZ003-241400-
Northern Panhandle of West Virginia

CITY           SKY/WX    TMP DP  RH WIND       PRES   REMARKS
WHEELING       CLOUDY    47  45  93 N9        30.17R
$$

WVZ009-241400-
Northwest West Virginia

CITY           SKY/WX    TMP DP  RH WIND       PRES   REMARKS
PARKERSBURG    CLOUDY    53  52  96 N6        30.15F
$$

WVZ006-241400-
Western West Virginia

CITY           SKY/WX    TMP DP  RH WIND       PRES   REMARKS
HUNTINGTON     LGT RAIN  57  55  93 E3        30.09F FOG
$$

WVZ015-241400-
West Central West Virginia

CITY           SKY/WX    TMP DP  RH WIND       PRES   REMARKS
CHARLESTON     LGT RAIN  56  56 100 CALM      30.10R VSB 1
$$

WVZ022-031-241400-
North Central West Virginia

CITY           SKY/WX    TMP DP  RH WIND       PRES   REMARKS
CLARKSBURG     CLOUDY    58  55  90 N7        30.14R
MORGANTOWN     RAIN      51  49  92 N8        30.15R FOG
$$

WVZ025-035-042-045-241400-
Southern West Virginia

CITY           SKY/WX    TMP DP  RH WIND       PRES   REMARKS
BECKLEY        PTSUNNY   61  51  70 SW7       30.16R
LOGAN          CLOUDY    61  55  82 CALM      30.12R
BLUEFIELD      PTSUNNY   60  48  64 SW7       30.19R
LEWISBURG      CLOUDY    51  51  98 CALM      30.18S
$$

WVZ047-241400-
Northern Mountains of West Virginia

CITY           SKY/WX    TMP DP  RH WIND       PRES   REMARKS
ELKINS         PTSUNNY   53  51  93 CALM      30.13S FOG
$$

WVZ052-241400-
Eastern Panhandle of West Virginia

CITY           SKY/WX    TMP DP  RH WIND       PRES   REMARKS
MARTINSBURG    CLOUDY    44  43  96 CALM      30.15R FOG
PETERSBURG     CLOUDY    44  44  99 CALM      30.12F FOG
$$




USA.gov is the U.S. government's official web portal to all federal, state and local government web resources and services.